owner,sensor,date,latitude,longitude,vertical_datum,direction_of_sea_water_velocity,sea_water_speed,upward_sea_water_velocity,qcFlag 
TABS,ioos:station:wmo:42050:1,2003-05-01T00:00:00Z,28.8425,-94.2433,2.0,217.5600715,21.24354255,-99999.0,'11111222,11111222,99999999' 
TABS,ioos:station:wmo:42050:1,2003-05-01T00:30:00Z,28.8425,-94.2433,2.0,214.1567852,19.39573664,-99999.0,'11111222,11111222,99999999' 
TABS,ioos:station:wmo:42050:1,2003-05-01T01:00:00Z,28.8425,-94.2433,2.0,222.7319712,16.97678709,-99999.0,'11111222,11111222,99999999' 
TABS,ioos:station:wmo:42050:1,2003-05-01T01:30:00Z,28.8425,-94.2433,2.0,207.2277315,14.68747766,-99999.0,'11111222,11111222,99999999' 
TABS,ioos:station:wmo:42050:1,2003-05-01T02:00:00Z,28.8425,-94.2433,2.0,211.4437643,11.25241752,-99999.0,'11111222,11111222,99999999' 
TABS,ioos:station:wmo:42050:1,2003-05-01T02:30:00Z,28.8425,-94.2433,2.0,238.2115541,8.105862076,-99999.0,'11133222,11111222,99999999' 
TABS,ioos:station:wmo:42050:1,2003-05-01T03:00:00Z,28.8425,-94.2433,2.0,254.5154456,9.214445181,-99999.0,'11133222,11111222,99999999' 
TABS,ioos:station:wmo:42050:1,2003-05-01T03:30:00Z,28.8425,-94.2433,2.0,275.5597732,8.670784278,-99999.0,'11133222,11111222,99999999' 
TABS,ioos:station:wmo:42050:1,2003-05-01T04:00:00Z,28.8425,-94.2433,2.0,296.5414569,10.69735014,-99999.0,'11111222,11111222,99999999' 
TABS,ioos:station:wmo:42050:1,2003-05-01T04:30:00Z,28.8425,-94.2433,2.0,313.8802288,14.83086309,-99999.0,'11111222,11111222,99999999' 
TABS,ioos:station:wmo:42050:1,2003-05-01T05:00:00Z,28.8425,-94.2433,2.0,327.6589283,15.90766168,-99999.0,'11111222,11111222,99999999' 
TABS,ioos:station:wmo:42050:1,2003-05-01T05:30:00Z,28.8425,-94.2433,2.0,336.2494991,16.48628824,-99999.0,'11111222,11111222,99999999' 
TABS,ioos:station:wmo:42050:1,2003-05-01T06:00:00Z,28.8425,-94.2433,2.0,346.0282486,19.4659215,-99999.0,'11111222,11111222,99999999' 
TABS,ioos:station:wmo:42050:1,2003-05-01T06:30:00Z,28.8425,-94.2433,2.0,343.9046786,17.81847356,-99999.0,'11111222,11111222,99999999' 
TABS,ioos:station:wmo:42050:1,2003-05-01T07:00:00Z,28.8425,-94.2433,2.0,344.8950544,21.45115848,-99999.0,'11111222,11111222,99999999' 
TABS,ioos:station:wmo:42050:1,2003-05-01T07:30:00Z,28.8425,-94.2433,2.0,349.0789598,19.37083633,-99999.0,'11111222,11111222,99999999' 
TABS,ioos:station:wmo:42050:1,2003-05-01T08:00:00Z,28.8425,-94.2433,2.0,9.428473527,16.60430065,-99999.0,'11111222,11111222,99999999' 
TABS,ioos:station:wmo:42050:1,2003-05-01T08:30:00Z,28.8425,-94.2433,2.0,10.20715207,18.8482917,-99999.0,'11111222,11111222,99999999' 
TABS,ioos:station:wmo:42050:1,2003-05-01T09:00:00Z,28.8425,-94.2433,2.0,25.82381629,12.44252386,-99999.0,'11111222,11111222,99999999' 
TABS,ioos:station:wmo:42050:1,2003-05-01T09:30:00Z,28.8425,-94.2433,2.0,41.70276657,10.32671293,-99999.0,'11111222,11111222,99999999' 
TABS,ioos:station:wmo:42050:1,2003-05-01T10:00:00Z,28.8425,-94.2433,2.0,78.33673324,8.903841867,-99999.0,'11133222,11111222,99999999' 
TABS,ioos:station:wmo:42050:1,2003-05-01T10:30:00Z,28.8425,-94.2433,2.0,75.19063082,12.40197565,-99999.0,'11111222,11111222,99999999' 
TABS,ioos:station:wmo:42050:1,2003-05-01T11:00:00Z,28.8425,-94.2433,2.0,111.4129194,9.312835229,-99999.0,'11133222,11111222,99999999' 
TABS,ioos:station:wmo:42050:1,2003-05-01T11:30:00Z,28.8425,-94.2433,2.0,133.0761002,14.74441589,-99999.0,'11111222,11111222,99999999' 
TABS,ioos:station:wmo:42050:1,2003-05-01T12:00:00Z,28.8425,-94.2433,2.0,147.7242207,17.52831994,-99999.0,'11111222,11111222,99999999' 
TABS,ioos:station:wmo:42050:1,2003-05-01T12:30:00Z,28.8425,-94.2433,2.0,138.1759171,17.74027339,-99999.0,'11111222,11111222,99999999' 
TABS,ioos:station:wmo:42050:1,2003-05-01T13:00:00Z,28.8425,-94.2433,2.0,144.8809937,18.13046607,-99999.0,'11111222,11111222,99999999' 
TABS,ioos:station:wmo:42050:1,2003-05-01T13:30:00Z,28.8425,-94.2433,2.0,150.5710141,18.43928415,-99999.0,'11111222,11111222,99999999' 
TABS,ioos:station:wmo:42050:1,2003-05-01T14:00:00Z,28.8425,-94.2433,2.0,151.5509467,17.54920226,-99999.0,'11111222,11111222,99999999' 
TABS,ioos:station:wmo:42050:1,2003-05-01T14:30:00Z,28.8425,-94.2433,2.0,155.608816,17.91933034,-99999.0,'11111222,11111222,99999999' 
TABS,ioos:station:wmo:42050:1,2003-05-01T15:00:00Z,28.8425,-94.2433,2.0,164.9016439,15.04949501,-99999.0,'11111222,11111222,99999999' 
TABS,ioos:station:wmo:42050:1,2003-05-01T15:30:00Z,28.8425,-94.2433,2.0,149.3327752,15.56713525,-99999.0,'11111222,11111222,99999999' 
TABS,ioos:station:wmo:42050:1,2003-05-01T16:00:00Z,28.8425,-94.2433,2.0,155.5710937,15.59623352,-99999.0,'11111222,11111222,99999999' 
TABS,ioos:station:wmo:42050:1,2003-05-01T16:30:00Z,28.8425,-94.2433,2.0,173.5115094,12.3893543,-99999.0,'11111222,11111222,99999999' 
TABS,ioos:station:wmo:42050:1,2003-05-01T17:00:00Z,28.8425,-94.2433,2.0,163.2963893,13.08199144,-99999.0,'11111222,11111222,99999999' 
TABS,ioos:station:wmo:42050:1,2003-05-01T17:30:00Z,28.8425,-94.2433,2.0,196.2006982,16.63040889,-99999.0,'11111222,11111222,99999999' 
TABS,ioos:station:wmo:42050:1,2003-05-01T18:00:00Z,28.8425,-94.2433,2.0,211.4534672,16.84520703,-99999.0,'11111222,11111222,99999999' 
TABS,ioos:station:wmo:42050:1,2003-05-01T18:30:00Z,28.8425,-94.2433,2.0,223.243343,15.45754508,-99999.0,'11111222,11111222,99999999' 
TABS,ioos:station:wmo:42050:1,2003-05-01T19:00:00Z,28.8425,-94.2433,2.0,230.1941011,16.71393431,-99999.0,'11111222,11111222,99999999' 
TABS,ioos:station:wmo:42050:1,2003-05-01T19:30:00Z,28.8425,-94.2433,2.0,241.5775536,20.14861037,-99999.0,'11111222,11111222,99999999' 
TABS,ioos:station:wmo:42050:1,2003-05-01T20:00:00Z,28.8425,-94.2433,2.0,246.1542501,23.84545449,-99999.0,'11111222,11111222,99999999' 
TABS,ioos:station:wmo:42050:1,2003-05-01T20:30:00Z,28.8425,-94.2433,2.0,252.4867262,24.95676461,-99999.0,'11111222,11111222,99999999' 
TABS,ioos:station:wmo:42050:1,2003-05-01T21:00:00Z,28.8425,-94.2433,2.0,251.5003204,25.33934687,-99999.0,'11111222,11111222,99999999' 
TABS,ioos:station:wmo:42050:1,2003-05-01T21:30:00Z,28.8425,-94.2433,2.0,254.2413639,23.97091988,-99999.0,'11111222,11111222,99999999' 
TABS,ioos:station:wmo:42050:1,2003-05-01T22:00:00Z,28.8425,-94.2433,2.0,247.5400367,23.92470898,-99999.0,'11111222,11111222,99999999' 
TABS,ioos:station:wmo:42050:1,2003-05-01T22:30:00Z,28.8425,-94.2433,2.0,248.9290896,22.41896519,-99999.0,'11111222,11111222,99999999' 
TABS,ioos:station:wmo:42050:1,2003-05-01T23:00:00Z,28.8425,-94.2433,2.0,248.2487681,21.04857477,-99999.0,'11111222,11111222,99999999' 
TABS,ioos:station:wmo:42050:1,2003-05-01T23:30:00Z,28.8425,-94.2433,2.0,250.4832041,24.96430452,-99999.0,'11111222,11111222,99999999' 
TABS,ioos:station:wmo:42050:1,2003-05-02T00:00:00Z,28.8425,-94.2433,2.0,245.7335456,24.5270463,-99999.0,'11111222,11111222,99999999' 
TABS,ioos:station:wmo:42050:1,2003-05-02T00:30:00Z,28.8425,-94.2433,2.0,258.4074308,25.87783801,-99999.0,'11111222,11111222,99999999' 
TABS,ioos:station:wmo:42050:1,2003-05-02T01:00:00Z,28.8425,-94.2433,2.0,267.4250219,21.37157224,-99999.0,'11111222,11111222,99999999' 
TABS,ioos:station:wmo:42050:1,2003-05-02T01:30:00Z,28.8425,-94.2433,2.0,275.8588933,17.73261684,-99999.0,'11111222,11111222,99999999' 
TABS,ioos:station:wmo:42050:1,2003-05-02T02:00:00Z,28.8425,-94.2433,2.0,293.2372564,23.57213609,-99999.0,'11111222,11111222,99999999' 
TABS,ioos:station:wmo:42050:1,2003-05-02T02:30:00Z,28.8425,-94.2433,2.0,298.7909237,22.34175463,-99999.0,'11111222,11111222,99999999' 
TABS,ioos:station:wmo:42050:1,2003-05-02T03:00:00Z,28.8425,-94.2433,2.0,309.9872137,25.48970969,-99999.0,'11111222,11111222,99999999' 
TABS,ioos:station:wmo:42050:1,2003-05-02T03:30:00Z,28.8425,-94.2433,2.0,317.9539081,26.62258064,-99999.0,'11111222,11111222,99999999' 
TABS,ioos:station:wmo:42050:1,2003-05-02T04:00:00Z,28.8425,-94.2433,2.0,326.6138524,26.1683492,-99999.0,'11111222,11111222,99999999' 
TABS,ioos:station:wmo:42050:1,2003-05-02T04:30:00Z,28.8425,-94.2433,2.0,329.194588,26.73158619,-99999.0,'11111222,11111222,99999999' 
TABS,ioos:station:wmo:42050:1,2003-05-02T05:00:00Z,28.8425,-94.2433,2.0,335.8540305,25.9615196,-99999.0,'11111222,11111222,99999999' 
TABS,ioos:station:wmo:42050:1,2003-05-02T05:30:00Z,28.8425,-94.2433,2.0,351.2306709,24.20294404,-99999.0,'11111222,11111222,99999999' 
TABS,ioos:station:wmo:42050:1,2003-05-02T06:00:00Z,28.8425,-94.2433,2.0,357.9850298,19.62213546,-99999.0,'11111222,11111222,99999999' 
TABS,ioos:station:wmo:42050:1,2003-05-02T06:30:00Z,28.8425,-94.2433,2.0,8.130293801,17.81909089,-99999.0,'11111222,11111222,99999999' 
TABS,ioos:station:wmo:42050:1,2003-05-02T07:00:00Z,28.8425,-94.2433,2.0,1.465788098,13.68447661,-99999.0,'11111222,11111222,99999999' 
TABS,ioos:station:wmo:42050:1,2003-05-02T07:30:00Z,28.8425,-94.2433,2.0,5.163760882,13.44456024,-99999.0,'11111222,11111222,99999999' 
TABS,ioos:station:wmo:42050:1,2003-05-02T08:00:00Z,28.8425,-94.2433,2.0,1.143564198,9.52189582,-99999.0,'11133222,11111222,99999999' 
TABS,ioos:station:wmo:42050:1,2003-05-02T08:30:00Z,28.8425,-94.2433,2.0,2.594045113,5.966112637,-99999.0,'11133222,11111222,99999999' 
TABS,ioos:station:wmo:42050:1,2003-05-02T09:00:00Z,28.8425,-94.2433,2.0,32.563385,6.205521735,-99999.0,'11133222,11111222,99999999' 
TABS,ioos:station:wmo:42050:1,2003-05-02T09:30:00Z,28.8425,-94.2433,2.0,41.8267986,3.448898375,-99999.0,'11133222,11111222,99999999' 
TABS,ioos:station:wmo:42050:1,2003-05-02T10:00:00Z,28.8425,-94.2433,2.0,57.91301579,1.487178537,-99999.0,'11133222,11111222,99999999' 
TABS,ioos:station:wmo:42050:1,2003-05-04T05:00:00Z,28.8425,-94.2433,2.0,272.0006829,53.00229618,-99999.0,'11111222,11111222,99999999' 
TABS,ioos:station:wmo:42050:1,2003-05-04T05:30:00Z,28.8425,-94.2433,2.0,272.0063168,43.99696012,-99999.0,'11111222,11111222,99999999' 
TABS,ioos:station:wmo:42050:1,2003-05-04T06:00:00Z,28.8425,-94.2433,2.0,284.0057494,44.99764105,-99999.0,'11111222,11111222,99999999' 
TABS,ioos:station:wmo:42050:1,2003-05-04T06:30:00Z,28.8425,-94.2433,2.0,285.0064225,45.99861954,-99999.0,'11111222,11111222,99999999' 
TABS,ioos:station:wmo:42050:1,2003-05-04T07:00:00Z,28.8425,-94.2433,2.0,287.995845,46.99915318,-99999.0,'11111222,11111222,99999999' 
TABS,ioos:station:wmo:42050:1,2003-05-04T07:30:00Z,28.8425,-94.2433,2.0,290.999316,47.99766765,-99999.0,'11111222,11111222,99999999' 
TABS,ioos:station:wmo:42050:1,2003-05-04T08:00:00Z,28.8425,-94.2433,2.0,294.0024586,47.0044466,-99999.0,'11111222,11111222,99999999' 
TABS,ioos:station:wmo:42050:1,2003-05-04T08:30:00Z,28.8425,-94.2433,2.0,287.0022733,33.00236507,-99999.0,'11111222,11111222,99999999' 
TABS,ioos:station:wmo:42050:1,2003-05-04T09:00:00Z,28.8425,-94.2433,2.0,299.0038191,37.00017838,-99999.0,'11111222,11111222,99999999' 
TABS,ioos:station:wmo:42050:1,2003-05-04T09:30:00Z,28.8425,-94.2433,2.0,311.0029659,34.99499536,-99999.0,'11111222,11111222,99999999' 
TABS,ioos:station:wmo:42050:1,2003-05-04T10:00:00Z,28.8425,-94.2433,2.0,320.0075586,29.0030688,-99999.0,'11111222,11111222,99999999' 
TABS,ioos:station:wmo:42050:1,2003-05-04T10:30:00Z,28.8425,-94.2433,2.0,341.9955235,24.00552645,-99999.0,'11111222,11111222,99999999' 
TABS,ioos:station:wmo:42050:1,2003-05-04T11:00:00Z,28.8425,-94.2433,2.0,350.9978172,16.99940293,-99999.0,'11111222,11111222,99999999' 
TABS,ioos:station:wmo:42050:1,2003-05-04T11:30:00Z,28.8425,-94.2433,2.0,0.000210459,14.0,-99999.0,'11111222,11111222,99999999' 
TABS,ioos:station:wmo:42050:1,2003-05-04T12:00:00Z,28.8425,-94.2433,2.0,13.98295374,12.99506445,-99999.0,'11111222,11111222,99999999' 
TABS,ioos:station:wmo:42050:1,2003-05-04T12:30:00Z,28.8425,-94.2433,2.0,18.00024296,9.999409983,-99999.0,'11133222,11111222,99999999' 
TABS,ioos:station:wmo:42050:1,2003-05-04T13:00:00Z,28.8425,-94.2433,2.0,52.9964544,5.998016339,-99999.0,'11133222,11111222,99999999' 
TABS,ioos:station:wmo:42050:1,2003-05-04T13:30:00Z,28.8425,-94.2433,2.0,61.96128698,7.998824914,-99999.0,'11133222,11111222,99999999' 
TABS,ioos:station:wmo:42050:1,2003-05-04T14:30:00Z,28.8425,-94.2433,2.0,110.0645846,3.002215848,-99999.0,'11133222,11111222,99999999' 
TABS,ioos:station:wmo:42050:1,2003-05-04T15:00:00Z,28.8425,-94.2433,2.0,134.9998948,4.002224382,-99999.0,'11133222,11111222,99999999' 
TABS,ioos:station:wmo:42050:1,2003-05-04T15:30:00Z,28.8425,-94.2433,2.0,144.0230034,5.004607877,-99999.0,'11133222,11111222,99999999' 
TABS,ioos:station:wmo:42050:1,2003-05-04T16:00:00Z,28.8425,-94.2433,2.0,157.9857336,8.003524224,-99999.0,'11133222,11111222,99999999' 
TABS,ioos:station:wmo:42050:1,2003-05-04T16:30:00Z,28.8425,-94.2433,2.0,150.0182203,6.003332408,-99999.0,'11133222,11111222,99999999' 
TABS,ioos:station:wmo:42050:1,2003-05-04T17:00:00Z,28.8425,-94.2433,2.0,174.0041276,8.999227745,-99999.0,'11133222,11111222,99999999' 
TABS,ioos:station:wmo:42050:1,2003-05-04T17:30:00Z,28.8425,-94.2433,2.0,187.9857785,8.997255137,-99999.0,'11133222,11111222,99999999' 
TABS,ioos:station:wmo:42050:1,2003-05-04T18:00:00Z,28.8425,-94.2433,2.0,197.0362547,6.997042232,-99999.0,'11133222,11111222,99999999' 
TABS,ioos:station:wmo:42050:1,2003-05-04T18:30:00Z,28.8425,-94.2433,2.0,179.9997895,7.0,-99999.0,'11133222,11111222,99999999' 
TABS,ioos:station:wmo:42050:1,2003-05-04T19:00:00Z,28.8425,-94.2433,2.0,212.9835503,9.000694418,-99999.0,'11133222,11111222,99999999' 
TABS,ioos:station:wmo:42050:1,2003-05-04T19:30:00Z,28.8425,-94.2433,2.0,218.0153611,10.0019998,-99999.0,'11111222,11111222,99999999' 
TABS,ioos:station:wmo:42050:1,2003-05-04T20:00:00Z,28.8425,-94.2433,2.0,219.0037453,12.99701504,-99999.0,'11111222,11111222,99999999' 
TABS,ioos:station:wmo:42050:1,2003-05-04T20:30:00Z,28.8425,-94.2433,2.0,206.9811175,16.00172491,-99999.0,'11111222,11111222,99999999' 
TABS,ioos:station:wmo:42050:1,2003-05-04T21:00:00Z,28.8425,-94.2433,2.0,212.0094365,13.99833204,-99999.0,'11111222,11111222,99999999' 
TABS,ioos:station:wmo:42050:1,2003-05-04T21:30:00Z,28.8425,-94.2433,2.0,213.0050998,12.99755362,-99999.0,'11111222,11111222,99999999' 
TABS,ioos:station:wmo:42050:1,2003-05-04T22:00:00Z,28.8425,-94.2433,2.0,213.0122004,18.99703661,-99999.0,'11111222,11111222,99999999' 
TABS,ioos:station:wmo:42050:1,2003-05-04T22:30:00Z,28.8425,-94.2433,2.0,221.9940006,24.00394134,-99999.0,'11111222,11111222,99999999' 
TABS,ioos:station:wmo:42050:1,2003-05-04T23:00:00Z,28.8425,-94.2433,2.0,237.0048114,24.00087082,-99999.0,'11111222,11111222,99999999' 
TABS,ioos:station:wmo:42050:1,2003-05-04T23:30:00Z,28.8425,-94.2433,2.0,236.0050404,24.00221656,-99999.0,'11111222,11111222,99999999' 
TABS,ioos:station:wmo:42050:1,2003-05-05T00:00:00Z,28.8425,-94.2433,2.0,233.995695,26.99708318,-99999.0,'11111222,11111222,99999999' 
TABS,ioos:station:wmo:42050:1,2003-05-05T00:30:00Z,28.8425,-94.2433,2.0,229.9974919,24.99934799,-99999.0,'11111222,11111222,99999999' 
TABS,ioos:station:wmo:42050:1,2003-05-05T01:00:00Z,28.8425,-94.2433,2.0,231.0069797,24.99915599,-99999.0,'11111222,11111222,99999999' 
TABS,ioos:station:wmo:42050:1,2003-05-05T08:00:00Z,28.8425,-94.2433,2.0,350.7184159,18.78596551,-99999.0,'11111222,11111222,99999999' 
TABS,ioos:station:wmo:42050:1,2003-05-05T08:30:00Z,28.8425,-94.2433,2.0,1.50832664,22.03763372,-99999.0,'11111222,11111222,99999999' 
TABS,ioos:station:wmo:42050:1,2003-05-05T09:00:00Z,28.8425,-94.2433,2.0,355.939523,16.38112328,-99999.0,'11111222,11111222,99999999' 
TABS,ioos:station:wmo:42050:1,2003-05-05T09:30:00Z,28.8425,-94.2433,2.0,355.9899712,17.87376289,-99999.0,'11111222,11111222,99999999' 
TABS,ioos:station:wmo:42050:1,2003-05-05T10:00:00Z,28.8425,-94.2433,2.0,10.92757158,12.92434138,-99999.0,'11111222,11111222,99999999' 
TABS,ioos:station:wmo:42050:1,2003-05-05T10:30:00Z,28.8425,-94.2433,2.0,358.1136205,11.8464214,-99999.0,'11111222,11111222,99999999' 
TABS,ioos:station:wmo:42050:1,2003-05-05T11:00:00Z,28.8425,-94.2433,2.0,14.47517944,3.800644682,-99999.0,'11133222,11111222,99999999' 
TABS,ioos:station:wmo:42050:1,2003-05-05T11:30:00Z,28.8425,-94.2433,2.0,349.5497974,4.575904282,-99999.0,'11133222,11111222,99999999' 
TABS,ioos:station:wmo:42050:1,2003-05-05T12:00:00Z,28.8425,-94.2433,2.0,337.9343446,7.24033839,-99999.0,'11133222,11111222,99999999' 
TABS,ioos:station:wmo:42050:1,2003-05-05T12:30:00Z,28.8425,-94.2433,2.0,268.276921,1.330601368,-99999.0,'11133222,11111222,99999999' 
TABS,ioos:station:wmo:42050:1,2003-05-05T13:00:00Z,28.8425,-94.2433,2.0,239.506292,1.044461584,-99999.0,'11133222,11111222,99999999' 
TABS,ioos:station:wmo:42050:1,2003-05-05T13:30:00Z,28.8425,-94.2433,2.0,202.531377,3.496927223,-99999.0,'11133222,11111222,99999999' 
TABS,ioos:station:wmo:42050:1,2003-05-05T14:00:00Z,28.8425,-94.2433,2.0,194.8337159,8.710298502,-99999.0,'11133222,11111222,99999999' 
TABS,ioos:station:wmo:42050:1,2003-05-05T14:30:00Z,28.8425,-94.2433,2.0,176.8081703,10.77671564,-99999.0,'11111222,11111222,99999999' 
TABS,ioos:station:wmo:42050:1,2003-05-05T15:00:00Z,28.8425,-94.2433,2.0,178.1521836,19.2299974,-99999.0,'11111222,11111222,99999999' 
TABS,ioos:station:wmo:42050:1,2003-05-05T15:30:00Z,28.8425,-94.2433,2.0,172.3457058,17.1931876,-99999.0,'11111222,11111222,99999999' 
TABS,ioos:station:wmo:42050:1,2003-05-05T16:00:00Z,28.8425,-94.2433,2.0,191.9161999,15.9333675,-99999.0,'11111222,11111222,99999999' 
TABS,ioos:station:wmo:42050:1,2003-05-05T16:30:00Z,28.8425,-94.2433,2.0,185.7140554,15.46685812,-99999.0,'11111222,11111222,99999999' 
TABS,ioos:station:wmo:42050:1,2003-05-05T17:00:00Z,28.8425,-94.2433,2.0,187.6012761,16.55548852,-99999.0,'11111222,11111222,99999999' 
TABS,ioos:station:wmo:42050:1,2003-05-05T17:30:00Z,28.8425,-94.2433,2.0,199.2013795,15.59774984,-99999.0,'11111222,11111222,99999999' 
TABS,ioos:station:wmo:42050:1,2003-05-05T18:00:00Z,28.8425,-94.2433,2.0,196.536979,17.95260984,-99999.0,'11111222,11111222,99999999' 
TABS,ioos:station:wmo:42050:1,2003-05-05T18:30:00Z,28.8425,-94.2433,2.0,204.5755273,17.26390454,-99999.0,'11111222,11111222,99999999' 
TABS,ioos:station:wmo:42050:1,2003-05-05T19:00:00Z,28.8425,-94.2433,2.0,207.2679449,16.76282792,-99999.0,'11111222,11111222,99999999' 
TABS,ioos:station:wmo:42050:1,2003-05-05T19:30:00Z,28.8425,-94.2433,2.0,209.5283923,19.72166322,-99999.0,'11111222,11111222,99999999' 
TABS,ioos:station:wmo:42050:1,2003-05-05T20:00:00Z,28.8425,-94.2433,2.0,220.3601551,21.41773331,-99999.0,'11111222,11111222,99999999' 
TABS,ioos:station:wmo:42050:1,2003-05-05T20:30:00Z,28.8425,-94.2433,2.0,221.5082725,25.89281174,-99999.0,'11111222,11111222,99999999' 
TABS,ioos:station:wmo:42050:1,2003-05-05T21:00:00Z,28.8425,-94.2433,2.0,227.1889413,30.35703872,-99999.0,'11111222,11111222,99999999' 
TABS,ioos:station:wmo:42050:1,2003-05-05T21:30:00Z,28.8425,-94.2433,2.0,234.9914188,31.82879985,-99999.0,'11111222,11111222,99999999' 
TABS,ioos:station:wmo:42050:1,2003-05-05T22:00:00Z,28.8425,-94.2433,2.0,243.5350273,33.1654112,-99999.0,'11111222,11111222,99999999' 
TABS,ioos:station:wmo:42050:1,2003-05-05T22:30:00Z,28.8425,-94.2433,2.0,253.0221699,29.58951841,-99999.0,'11111222,11111222,99999999' 
TABS,ioos:station:wmo:42050:1,2003-05-05T23:00:00Z,28.8425,-94.2433,2.0,264.9163583,27.99008396,-99999.0,'11111222,11111222,99999999' 
TABS,ioos:station:wmo:42050:1,2003-05-05T23:30:00Z,28.8425,-94.2433,2.0,269.571399,28.10078469,-99999.0,'11111222,11111222,99999999' 
TABS,ioos:station:wmo:42050:1,2003-05-06T00:00:00Z,28.8425,-94.2433,2.0,273.8842937,28.93645624,-99999.0,'11111222,11111222,99999999' 
TABS,ioos:station:wmo:42050:1,2003-05-06T00:30:00Z,28.8425,-94.2433,2.0,273.7977608,25.06502942,-99999.0,'11111222,11111222,99999999' 
TABS,ioos:station:wmo:42050:1,2003-05-06T01:00:00Z,28.8425,-94.2433,2.0,276.5459393,24.65068356,-99999.0,'11111222,11111222,99999999' 
TABS,ioos:station:wmo:42050:1,2003-05-06T01:30:00Z,28.8425,-94.2433,2.0,271.3687462,15.49441835,-99999.0,'11111222,11111222,99999999' 
TABS,ioos:station:wmo:42050:1,2003-05-06T02:00:00Z,28.8425,-94.2433,2.0,277.9220491,21.76771922,-99999.0,'11111222,11111222,99999999' 
TABS,ioos:station:wmo:42050:1,2003-05-06T02:30:00Z,28.8425,-94.2433,2.0,269.808169,17.96010022,-99999.0,'11111222,11111222,99999999' 
TABS,ioos:station:wmo:42050:1,2003-05-06T03:00:00Z,28.8425,-94.2433,2.0,269.8837134,19.78004044,-99999.0,'11111222,11111222,99999999' 
TABS,ioos:station:wmo:42050:1,2003-05-06T03:30:00Z,28.8425,-94.2433,2.0,277.3946229,20.59123357,-99999.0,'11111222,11111222,99999999' 
TABS,ioos:station:wmo:42050:1,2003-05-06T04:00:00Z,28.8425,-94.2433,2.0,279.6184304,16.93809021,-99999.0,'11111222,11111222,99999999' 
TABS,ioos:station:wmo:42050:1,2003-05-06T04:30:00Z,28.8425,-94.2433,2.0,282.2556725,17.94903061,-99999.0,'11111222,11111222,99999999' 
TABS,ioos:station:wmo:42050:1,2003-05-06T05:00:00Z,28.8425,-94.2433,2.0,303.1621328,13.23570927,-99999.0,'11111222,11111222,99999999' 
TABS,ioos:station:wmo:42050:1,2003-05-06T05:30:00Z,28.8425,-94.2433,2.0,294.5631455,13.56780012,-99999.0,'11111222,11111222,99999999' 
TABS,ioos:station:wmo:42050:1,2003-05-06T06:00:00Z,28.8425,-94.2433,2.0,320.6709175,11.09221799,-99999.0,'11111222,11111222,99999999' 
TABS,ioos:station:wmo:42050:1,2003-05-06T06:30:00Z,28.8425,-94.2433,2.0,334.3040685,9.732486835,-99999.0,'11133222,11111222,99999999' 
TABS,ioos:station:wmo:42050:1,2003-05-06T07:00:00Z,28.8425,-94.2433,2.0,333.2556744,12.84403753,-99999.0,'11111222,11111222,99999999' 
TABS,ioos:station:wmo:42050:1,2003-05-06T07:30:00Z,28.8425,-94.2433,2.0,331.5405203,11.22672704,-99999.0,'11111222,11111222,99999999' 
TABS,ioos:station:wmo:42050:1,2003-05-06T08:00:00Z,28.8425,-94.2433,2.0,338.5032277,14.6812806,-99999.0,'11111222,11111222,99999999' 
TABS,ioos:station:wmo:42050:1,2003-05-06T08:30:00Z,28.8425,-94.2433,2.0,335.6885687,16.49257409,-99999.0,'11111222,11111222,99999999' 
TABS,ioos:station:wmo:42050:1,2003-05-06T09:00:00Z,28.8425,-94.2433,2.0,346.1613085,9.155774134,-99999.0,'11133222,11111222,99999999' 
TABS,ioos:station:wmo:42050:1,2003-05-06T09:30:00Z,28.8425,-94.2433,2.0,2.556784678,11.88182646,-99999.0,'11111222,11111222,99999999' 
TABS,ioos:station:wmo:42050:1,2003-05-06T10:00:00Z,28.8425,-94.2433,2.0,352.344356,12.98575373,-99999.0,'11111222,11111222,99999999' 
TABS,ioos:station:wmo:42050:1,2003-05-06T10:30:00Z,28.8425,-94.2433,2.0,353.3635772,9.604358386,-99999.0,'11133222,11111222,99999999' 
TABS,ioos:station:wmo:42050:1,2003-05-06T11:00:00Z,28.8425,-94.2433,2.0,0.980724799,4.090598978,-99999.0,'11133222,11111222,99999999' 
TABS,ioos:station:wmo:42050:1,2003-05-06T11:30:00Z,28.8425,-94.2433,2.0,322.399893,5.490446248,-99999.0,'11133222,11111222,99999999' 
TABS,ioos:station:wmo:42050:1,2003-05-06T12:00:00Z,28.8425,-94.2433,2.0,327.1182505,6.096761435,-99999.0,'11133222,11111222,99999999' 
TABS,ioos:station:wmo:42050:1,2003-05-06T12:30:00Z,28.8425,-94.2433,2.0,246.2751741,5.865705414,-99999.0,'11133222,11111222,99999999' 
TABS,ioos:station:wmo:42050:1,2003-05-06T13:00:00Z,28.8425,-94.2433,2.0,213.4174996,8.170826152,-99999.0,'11133222,11111222,99999999' 
TABS,ioos:station:wmo:42050:1,2003-05-06T13:30:00Z,28.8425,-94.2433,2.0,204.0616447,12.28773779,-99999.0,'11111222,11111222,99999999' 
TABS,ioos:station:wmo:42050:1,2003-05-06T14:00:00Z,28.8425,-94.2433,2.0,192.7837892,16.31441694,-99999.0,'11111222,11111222,99999999' 
TABS,ioos:station:wmo:42050:1,2003-05-06T14:30:00Z,28.8425,-94.2433,2.0,194.5231326,22.25102245,-99999.0,'11111222,11111222,99999999' 
TABS,ioos:station:wmo:42050:1,2003-05-06T15:00:00Z,28.8425,-94.2433,2.0,200.8878001,28.07513134,-99999.0,'11111222,11111222,99999999' 
TABS,ioos:station:wmo:42050:1,2003-05-06T15:30:00Z,28.8425,-94.2433,2.0,209.9650892,29.33071087,-99999.0,'11111222,11111222,99999999' 
TABS,ioos:station:wmo:42050:1,2003-05-06T16:00:00Z,28.8425,-94.2433,2.0,210.2325581,29.71111745,-99999.0,'11111222,11111222,99999999' 
TABS,ioos:station:wmo:42050:1,2003-05-06T16:30:00Z,28.8425,-94.2433,2.0,213.4222686,29.70174574,-99999.0,'11111222,11111222,99999999' 
TABS,ioos:station:wmo:42050:1,2003-05-06T17:00:00Z,28.8425,-94.2433,2.0,217.83387,30.780359,-99999.0,'11111222,11111222,99999999' 
TABS,ioos:station:wmo:42050:1,2003-05-06T17:30:00Z,28.8425,-94.2433,2.0,224.1871291,30.41572126,-99999.0,'11111222,11111222,99999999' 